FW5281 Weather Reports


time (UTC)temp
C
wind
direction
speed
KPH
gust
KPH
rain 1hr
cm
rain 24hr
cm
rain mn
cm
humidity
%
barometer
mb
20260504192518 16 0.0 0.0 0.56 0.56 0.58 92 1001.1
20260504191517 16 0.0 0.0 0.53 0.53 0.56 92 1001.8
20260504190518 16 0.0 0.0 0.48 0.48 0.51 91 1002.6
20260504185516 17 0.0 0.0 0.38 0.38 0.41 89 1002.9
20260504184516 17 0.0 0.0 0.30 0.30 0.30 86 1002.4
20260504183536 18 0.0 0.0 0.13 0.13 0.13 83 1002.4
20260504182536 18 0.0 0.0 0.00 0.00 0.00 78 1003.4
20260504181516 18 0.0 0.0 0.00 0.00 0.00 77 1003.4
20260504180516 19 0.0 0.0 0.00 0.00 0.00 76 1003.2
20260504175518 19 0.0 0.0 0.00 0.00 0.00 75 1003.0
20260504174516 19 0.0 0.0 0.00 0.00 0.00 73 1002.9
20260504173536 19 0.0 0.0 0.00 0.00 0.00 71 1003.0
20260504172536 19 0.0 0.0 0.00 0.00 0.00 71 1003.1
20260504171519 19 0.0 0.0 0.00 0.00 0.00 69 1002.8
20260504170516 20 0.0 0.0 0.00 0.00 0.00 67 1003.1
20260504150516 21 0.0 0.0 0.00 0.00 0.00 53 1005.2
20260504140516 20 0.0 0.0 0.00 0.00 0.00 56 1004.9
20260504130516 17 0.0 0.0 0.00 0.00 0.00 68 1005.6
20260504110515 16 0.0 0.0 0.00 0.00 0.00 69 1006.0
20260504100516 17 0.0 0.0 0.00 0.00 0.00 66 1005.8
20260504081516 18 0.0 0.0 0.00 0.00 0.00 65 1005.9
20260504080515 18 0.0 0.0 0.00 0.00 0.00 61 1005.8
20260504050536 20 0.0 0.0 0.00 0.00 0.00 51 1005.4
20260504045515 20 0.0 0.0 0.00 0.00 0.00 50 1005.3
20260504044515 20 0.0 0.0 0.00 0.00 0.00 50 1005.6
20260504043515 20 0.0 0.0 0.00 0.00 0.00 49 1005.9
20260504042515 20 0.0 0.0 0.00 0.00 0.00 48 1006.3
20260504041515 20 0.0 0.0 0.00 0.00 0.00 48 1006.5
20260504040515 20 0.0 0.0 0.00 0.00 0.00 48 1006.2
20260504035515 20 0.0 0.0 0.00 0.00 0.00 48 1007.0
20260504034535 20 0.0 0.0 0.00 0.00 0.00 47 1006.9
20260504033515 21 0.0 0.0 0.00 0.00 0.00 47 1007.1
20260504032515 21 0.0 0.0 0.00 0.00 0.00 46 1007.0
20260504031515 21 0.0 0.0 0.00 0.00 0.00 46 1007.0
20260504030515 21 0.0 0.0 0.00 0.00 0.00 45 1006.8
20260504025535 21 0.0 0.0 0.00 0.00 0.00 44 1006.8
20260504024516 21 0.0 0.0 0.00 0.00 0.00 43 1006.7
20260504023515 22 0.0 0.0 0.00 0.00 0.00 42 1006.7
20260504022515 22 0.0 0.0 0.00 0.00 0.00 42 1006.6
20260504021515 22 0.0 0.0 0.00 0.00 0.00 41 1006.5
20260504020515 22 0.0 0.0 0.00 0.00 0.00 40 1006.4
20260504015515 23 0.0 0.0 0.00 0.00 0.00 40 1006.4
20260504014515 23 0.0 0.0 0.00 0.00 0.00 40 1006.2
20260504013535 23 0.0 0.0 0.00 0.00 0.00 39 1006.2
20260504012515 23 0.0 0.0 0.00 0.00 0.00 38 1006.1
20260504011537 23 0.0 0.0 0.00 0.00 0.00 38 1006.1
20260504010517 23 0.0 0.0 0.00 0.00 0.00 38 1006.1
20260504005537 24 0.0 0.0 0.00 0.00 0.00 37 1006.0
20260504004517 24 0.0 0.0 0.00 0.00 0.00 36 1006.0
20260504003537 25 0.0 0.0 0.00 0.00 0.00 37 1006.1
20260504002517 25 0.0 0.0 0.00 0.00 0.00 35 1006.1
20260504001517 25 0.0 0.0 0.00 0.00 0.00 35 1006.1
20260504000517 25 0.0 0.0 0.00 0.00 0.00 33 1006.1
20260503235517 25 0.0 0.0 0.00 0.00 0.00 33 1006.2
20260503234517 26 0.0 0.0 0.00 0.00 0.00 32 1006.3
20260503233517 26 0.0 0.0 0.00 0.00 0.00 31 1006.4
20260503232517 26 0.0 0.0 0.00 0.00 0.00 30 1006.5
20260503231517 27 0.0 0.0 0.00 0.00 0.00 28 1006.5
20260503230727 27 0.0 0.0 0.00 0.00 0.00 28 1006.6
20260503225517 27 0.0 0.0 0.00 0.00 0.00 28 1006.6
20260503224517 28 0.0 0.0 0.00 0.00 0.00 27 1006.8
20260503223517 28 0.0 0.0 0.00 0.00 0.00 27 1006.8
20260503222517 27 0.0 0.0 0.00 0.00 0.00 28 1006.9
20260503221517 27 0.0 0.0 0.00 0.00 0.00 28 1006.9
20260503220517 27 0.0 0.0 0.00 0.00 0.00 27 1007.0
20260503215516 27 0.0 0.0 0.00 0.00 0.00 28 1007.1
20260503214517 27 0.0 0.0 0.00 0.00 0.00 27 1007.2
20260503213516 27 0.0 0.0 0.00 0.00 0.00 28 1007.1
20260503212537 27 0.0 0.0 0.00 0.00 0.00 28 1007.2
20260503211516 27 0.0 0.0 0.00 0.00 0.00 27 1007.5
20260503204517 26 0.0 0.0 0.00 0.00 0.00 29 1007.9
20260503203517 26 0.0 0.0 0.00 0.00 0.00 29 1008.0
20260503202517 26 0.0 0.0 0.00 0.00 0.00 29 1008.4
20260503201516 26 0.0 0.0 0.00 0.00 0.00 28 1008.7
20260503200518 26 0.0 0.0 0.00 0.00 0.00 29 1008.9
20260503195516 26 0.0 0.0 0.00 0.00 0.00 30 1009.2
20260503194517 25 0.0 0.0 0.00 0.00 0.00 30 1009.4
20260503193516 25 0.0 0.0 0.00 0.00 0.00 29 1009.8